Wind_Speed
34 34 35 35 36 37 37 38 39 40 41 42 43 45 46 47 48 49 51 52 53 54 55 57 58 58 59 59 59 59 58 58 57 57 56 55 55 56
33 32 33 33 34 36 37 38 40 42 43 43 44 46 47 48 49 50 51 52 53 54 55 56 56 56 57 57 56 56 55 53 52 51 50 49 50 51
31 31 32 33 34 35 37 38 39 41 42 44 45 46 47 48 49 49 50 51 51 52 53 53 53 53 53 52 51 50 49 48 46 45 44 44 45 46
29 30 31 33 34 35 36 38 39 41 42 43 44 46 47 47 48 48 49 49 49 50 50 49 49 48 47 46 44 43 42 41 39 38 39 40 41 41
29 30 32 33 34 35 37 38 39 40 41 42 43 44 44 45 45 46 46 46 46 46 45 44 43 41 40 39 38 37 36 35 34 34 35 35 36 36
30 31 32 33 34 35 37 38 39 40 40 41 41 41 42 42 42 42 42 42 41 40 39 37 35 34 34 33 32 31 30 30 30 31 32 32 32 32
30 31 32 33 34 35 36 36 37 38 38 38 38 38 39 39 38 38 37 35 35 34 32 30 29 29 28 28 27 26 26 27 27 27 27 27 28 28
29 31 31 32 33 33 34 34 35 35 35 35 35 35 35 34 34 33 31 30 29 27 26 25 25 24 24 24 24 24 24 24 24 24 24 24 24 24
28 29 30 31 31 31 32 32 32 32 32 31 31 30 29 29 29 28 27 26 24 23 22 22 21 21 20 21 21 22 22 22 21 21 21 22 22 22
27 28 28 28 28 29 29 29 29 29 28 27 27 26 25 24 24 23 23 21 20 19 18 18 18 18 18 19 20 20 20 20 20 20 20 20 20 20
26 26 26 26 26 27 27 26 26 26 24 24 23 23 22 22 22 21 19 17 16 16 15 15 15 16 16 17 18 18 18 19 19 19 19 19 20 20
24 24 24 24 24 24 24 24 23 23 22 21 20 20 20 20 19 18 17 15 14 12 12 12 13 14 14 15 16 16 17 18 18 18 19 20 20 21
22 22 21 21 21 21 21 21 21 20 19 19 19 19 18 18 17 15 14 12 11 10 10 10 11 12 13 14 14 15 15 16 17 18 19 20 21 21
19 19 19 19 19 19 19 19 18 18 18 18 18 17 17 16 14 13 11 10 9 9 8 8 9 11 12 13 14 15 15 16 16 17 18 19 21 22
17 17 17 18 18 17 17 17 16 16 17 17 16 15 15 14 13 11 9 9 8 7 6 7 8 9 11 12 13 14 15 16 17 17 18 19 21 22
16 16 16 16 16 16 16 16 16 16 15 15 14 14 13 12 11 9 8 7 6 6 5 6 7 8 10 11 12 13 14 15 16 17 18 20 21 22
14 14 15 15 15 15 15 15 14 14 14 14 13 13 11 10 9 7 6 5 4 4 4 5 6 7 9 10 11 12 13 14 16 17 18 19 21 22
13 13 13 13 13 13 13 13 13 13 12 12 11 11 10 8 7 6 5 3 3 3 3 4 5 6 7 9 10 11 13 14 16 17 18 19 20 22
11 12 12 12 12 12 12 12 12 11 11 11 10 9 8 7 5 4 3 2 2 2 3 4 5 6 7 8 10 11 13 14 15 16 17 19 20 21
10 11 11 11 11 11 11 11 11 10 10 9 9 8 6 5 3 3 2 1 1 2 3 4 5 6 7 8 9 11 12 14 15 16 18 19 20 21
9 10 10 10 10 10 10 10 9 9 8 7 7 5 4 3 2 2 1 2 2 3 3 4 5 6 7 8 9 10 12 13 15 16 18 19 20 21
8 9 9 9 9 9 9 8 8 7 6 6 5 4 3 2 2 1 2 2 3 3 4 4 5 6 6 7 8 10 11 13 15 16 18 19 20 21
8 8 8 8 8 8 8 7 6 6 5 4 3 3 2 2 2 2 2 3 3 4 4 4 5 6 6 7 8 10 11 13 15 16 18 19 21 22
Wind_Direction
268 270 270 270 271 273 276 278 280 282 284 285 287 288 289 289 289 290 291 291 291 291 292 292 292 292 292 291 291 290 290 289 287 286 284 281 279 278
267 268 269 270 273 276 279 281 283 285 287 288 289 290 291 291 291 292 293 293 294 294 294 294 294 294 294 293 292 291 290 290 288 286 285 282 279 279
269 269 271 274 277 280 283 284 286 287 289 289 291 292 293 293 294 294 295 295 296 296 297 297 297 296 296 295 294 293 292 291 290 289 286 285 283 282
273 275 277 280 281 282 284 286 288 289 290 291 292 293 294 295 296 297 297 297 298 299 299 299 299 299 299 299 298 297 296 295 293 292 290 288 287 286
278 279 281 282 283 285 286 288 289 290 291 293 294 294 296 297 298 299 300 300 301 301 301 302 302 302 302 302 302 302 301 299 297 295 296 296 294 292
280 282 283 285 287 288 289 290 291 292 294 295 296 297 298 299 299 301 302 303 304 304 305 306 307 306 307 307 307 307 306 304 302 301 300 300 299 298
282 284 286 287 289 291 292 293 294 295 297 298 298 299 300 300 301 303 305 307 308 309 310 311 311 311 312 313 314 314 313 312 311 310 309 308 308 307
285 286 288 290 293 294 295 296 297 298 299 300 301 302 303 304 305 306 308 309 310 312 313 315 316 316 318 319 321 321 320 320 320 319 319 318 317 315
287 289 291 293 295 296 297 298 299 300 301 303 304 306 307 309 311 311 310 311 312 314 316 319 321 323 325 327 328 329 328 328 330 331 330 329 328 326
289 291 293 294 295 297 298 299 300 301 302 304 306 308 310 312 314 315 316 315 317 319 321 324 327 329 332 334 336 337 338 339 340 341 342 342 341 340
290 293 294 295 297 298 299 301 302 303 304 307 309 311 311 313 315 315 316 318 319 321 323 327 331 334 337 339 343 346 348 351 352 353 354 355 355 355
292 293 295 296 298 300 301 302 304 305 306 308 310 312 313 315 315 316 317 317 319 321 324 330 335 339 342 346 350 352 354 357 0 2 3 5 5 5
293 295 296 298 300 302 303 304 306 307 308 309 311 313 315 316 316 317 317 317 318 321 327 334 340 344 347 351 355 357 0 3 6 8 9 10 12 12
293 296 298 300 302 303 305 307 308 310 312 312 313 314 316 318 318 319 317 317 320 324 331 339 345 347 352 356 0 5 7 9 12 14 14 16 18 18
294 296 299 302 304 306 308 309 311 313 314 315 315 316 318 321 322 323 322 324 327 331 338 344 346 351 357 1 5 10 13 15 17 18 18 21 21 21
296 298 301 303 305 307 308 310 312 315 316 318 317 317 320 323 324 325 326 327 329 332 338 349 354 358 4 6 10 16 19 21 22 22 24 25 25 24
296 298 301 304 306 308 309 310 312 314 316 318 320 320 321 323 323 325 330 334 338 344 350 358 4 10 13 15 18 23 26 26 25 26 27 26 25 25
300 302 304 306 309 310 311 313 315 317 318 320 321 321 321 322 324 326 329 337 350 4 14 18 20 23 23 25 27 29 30 29 28 27 27 26 26 25
306 307 308 309 311 313 314 316 317 317 318 319 321 323 323 324 327 332 335 341 9 27 29 30 36 38 35 34 35 32 31 31 30 28 27 26 24 22
311 311 313 314 316 317 319 319 318 318 319 320 322 324 326 327 332 343 353 10 40 51 51 52 51 48 45 42 38 34 33 32 30 26 23 22 21 19
317 317 317 319 321 322 323 324 323 323 325 326 327 330 335 339 344 1 39 58 69 72 68 61 58 56 51 44 39 34 31 29 25 21 19 17 16 15
326 325 324 324 326 328 328 329 330 331 333 334 336 340 348 356 8 48 85 85 83 82 77 69 63 58 51 43 36 30 25 21 17 14 12 11 10 9
337 335 334 333 332 333 334 336 338 339 339 343 350 359 13 31 64 92 102 100 91 85 81 73 64 55 44 37 29 24 19 14 10 7 5 5 4 4
Height
5794 5794 5795 5794 5794 5793 5792 5791 5790 5788 5788 5785 5783 5780 5777 5775 5771 5768 5764 5761 5757 5753 5748 5744 5740 5736 5731 5727 5723 5719 5715 5711 5707 5704 5700 5698 5696 5694
5786 5786 5786 5786 5786 5785 5784 5782 5781 5779 5778 5775 5773 5770 5767 5763 5760 5756 5752 5748 5744 5740 5735 5731 5726 5721 5717 5712 5708 5703 5699 5696 5692 5688 5685 5683 5681 5678
5779 5779 5779 5778 5778 5777 5776 5774 5772 5770 5768 5765 5762 5759 5756 5752 5748 5744 5740 5736 5732 5727 5722 5718 5713 5708 5703 5698 5693 5689 5685 5682 5678 5675 5672 5670 5667 5665
5772 5772 5772 5771 5770 5769 5767 5765 5763 5761 5758 5755 5752 5748 5745 5741 5737 5733 5729 5725 5720 5715 5710 5705 5700 5695 5690 5686 5681 5677 5673 5669 5666 5663 5661 5658 5655 5652
5765 5765 5764 5763 5762 5760 5759 5756 5754 5751 5748 5745 5742 5738 5734 5730 5726 5722 5717 5713 5709 5704 5699 5694 5689 5684 5680 5675 5671 5667 5664 5660 5657 5654 5651 5648 5645 5641
5758 5757 5757 5756 5754 5752 5750 5747 5745 5742 5738 5735 5732 5728 5724 5720 5716 5712 5708 5703 5698 5694 5690 5685 5680 5676 5671 5667 5664 5660 5656 5652 5649 5646 5643 5639 5636 5633
5751 5750 5749 5748 5746 5744 5741 5738 5736 5732 5729 5726 5723 5719 5715 5711 5707 5703 5699 5694 5690 5686 5682 5678 5673 5669 5665 5661 5657 5654 5650 5647 5643 5640 5636 5632 5628 5625
5744 5743 5741 5740 5738 5735 5733 5730 5727 5724 5721 5717 5714 5710 5706 5703 5699 5695 5691 5688 5684 5680 5676 5672 5669 5665 5661 5657 5653 5649 5646 5642 5638 5634 5631 5627 5623 5619
5737 5736 5734 5732 5730 5728 5725 5722 5719 5716 5713 5710 5706 5703 5700 5696 5692 5688 5685 5681 5678 5674 5671 5668 5665 5661 5658 5654 5650 5646 5642 5639 5635 5631 5627 5623 5618 5614
5730 5729 5727 5725 5723 5720 5718 5715 5712 5709 5706 5703 5700 5697 5693 5690 5687 5684 5680 5677 5673 5671 5668 5665 5662 5659 5655 5652 5648 5644 5640 5636 5632 5628 5624 5620 5616 5612
5723 5722 5720 5718 5716 5714 5711 5709 5706 5703 5700 5697 5694 5691 5688 5685 5682 5679 5676 5673 5670 5668 5665 5663 5660 5657 5654 5651 5647 5643 5639 5635 5631 5627 5623 5619 5615 5610
5717 5716 5714 5712 5710 5707 5705 5703 5700 5698 5695 5692 5689 5686 5683 5680 5678 5675 5673 5670 5668 5665 5663 5661 5658 5656 5653 5650 5646 5643 5639 5635 5631 5627 5623 5618 5614 5609
5711 5710 5708 5706 5704 5702 5700 5698 5695 5693 5690 5687 5685 5682 5679 5677 5674 5672 5669 5667 5665 5663 5661 5659 5657 5655 5652 5649 5646 5643 5639 5635 5631 5627 5623 5619 5614 5610
5706 5705 5703 5701 5700 5698 5695 5693 5691 5688 5686 5683 5681 5679 5676 5674 5672 5669 5667 5665 5663 5661 5659 5658 5656 5654 5651 5649 5646 5643 5639 5635 5632 5628 5624 5620 5616 5611
5702 5700 5699 5697 5695 5693 5691 5689 5687 5685 5682 5680 5678 5675 5673 5671 5669 5667 5665 5663 5661 5660 5658 5657 5655 5653 5651 5648 5646 5643 5640 5636 5633 5629 5626 5622 5618 5613
5697 5696 5695 5693 5691 5689 5687 5685 5683 5681 5679 5677 5675 5673 5671 5669 5667 5665 5664 5662 5661 5659 5658 5656 5655 5653 5651 5649 5646 5644 5641 5638 5634 5631 5627 5623 5619 5615
5693 5692 5691 5689 5688 5686 5684 5682 5680 5678 5676 5674 5672 5670 5668 5667 5665 5664 5662 5661 5660 5659 5658 5657 5655 5653 5652 5650 5647 5645 5642 5639 5636 5633 5629 5626 5622 5618
5690 5689 5688 5686 5685 5683 5681 5679 5677 5676 5674 5672 5670 5668 5666 5665 5664 5662 5661 5661 5660 5659 5658 5657 5656 5654 5653 5651 5649 5646 5644 5641 5638 5635 5632 5628 5624 5620
5687 5686 5684 5683 5682 5680 5678 5676 5675 5673 5671 5670 5668 5666 5665 5664 5662 5662 5661 5660 5659 5659 5658 5657 5656 5655 5654 5652 5650 5648 5646 5643 5640 5637 5634 5630 5627 5623
5684 5683 5682 5680 5679 5677 5676 5674 5672 5671 5669 5668 5666 5665 5664 5663 5662 5661 5660 5660 5659 5659 5658 5658 5657 5656 5654 5653 5652 5650 5647 5645 5642 5639 5636 5632 5629 5625
5682 5681 5680 5678 5677 5675 5674 5672 5671 5669 5668 5666 5665 5664 5663 5662 5661 5661 5660 5660 5660 5659 5659 5658 5658 5657 5655 5655 5653 5651 5649 5646 5644 5641 5638 5634 5631 5627
5681 5679 5678 5677 5675 5674 5672 5671 5669 5668 5666 5665 5664 5663 5662 5662 5661 5661 5661 5660 5660 5660 5659 5659 5658 5658 5657 5656 5654 5653 5650 5648 5645 5642 5639 5636 5632 5628
5680 5678 5677 5675 5674 5672 5671 5670 5668 5667 5666 5665 5664 5663 5662 5662 5661 5661 5661 5661 5661 5661 5660 5660 5660 5659 5658 5657 5655 5654 5651 5649 5647 5644 5640 5636 5632 5628